Time,TemperatureF,DewpointF,PressureIn,WindDirection,WindDirectionDegrees,WindSpeedMPH,WindSpeedGustMPH,Humidity,HourlyPrecipIn,Conditions,Clouds,dailyrainin,SoftwareType,DateUTC
2013-03-24 00:00:00,76.3,74.8,30.85,East,98,2.0,2.0,95,0.00,,,0.00,Wunderground v.1.15,2013-03-24 04:00:00,
2013-03-24 00:02:00,76.3,74.8,30.84,ESE,108,2.0,9.0,95,0.00,,,0.00,Wunderground v.1.15,2013-03-24 04:02:00,
2013-03-24 00:03:00,76.2,74.7,30.85,ESE,104,1.0,9.0,95,0.00,,,0.00,Wunderground v.1.15,2013-03-24 04:03:00,
2013-03-24 00:09:00,76.2,74.7,30.84,SE,139,1.0,9.0,95,0.00,,,0.00,Wunderground v.1.15,2013-03-24 04:09:00,
2013-03-24 00:15:00,76.2,74.7,30.84,SE,132,1.0,9.0,95,0.00,,,0.00,Wunderground v.1.15,2013-03-24 04:15:00,
2013-03-24 00:22:00,76.2,74.7,30.84,SE,136,2.0,9.0,95,0.00,,,0.00,Wunderground v.1.15,2013-03-24 04:22:00,
2013-03-24 00:28:00,76.1,74.6,30.83,SSE,162,2.0,9.0,95,0.00,,,0.00,Wunderground v.1.15,2013-03-24 04:28:00,
2013-03-24 00:33:00,76.2,74.7,30.83,SSE,152,1.0,9.0,95,0.00,,,0.00,Wunderground v.1.15,2013-03-24 04:33:00,
2013-03-24 00:38:00,76.2,74.7,30.83,SE,146,2.0,9.0,95,0.00,,,0.00,Wunderground v.1.15,2013-03-24 04:38:00,
2013-03-24 00:44:00,76.2,74.7,30.83,ENE,64,3.0,9.0,95,0.00,,,0.00,Wunderground v.1.15,2013-03-24 04:44:00,
2013-03-24 00:50:00,76.2,74.7,30.83,ESE,120,2.0,2.0,95,0.00,,,0.00,Wunderground v.1.15,2013-03-24 04:50:00,
2013-03-24 00:56:00,76.3,74.8,30.83,ENE,75,2.0,9.0,95,0.00,,,0.00,Wunderground v.1.15,2013-03-24 04:56:00,
2013-03-24 01:01:00,76.4,75.2,30.83,SSW,195,2.0,9.0,96,0.00,,,0.00,Wunderground v.1.15,2013-03-24 05:01:00,
2013-03-24 01:06:00,76.5,75.3,30.83,SSE,162,2.0,9.0,96,0.00,,,0.00,Wunderground v.1.15,2013-03-24 05:06:00,
2013-03-24 01:13:00,76.4,75.2,30.83,East,100,2.0,9.0,96,0.00,,,0.00,Wunderground v.1.15,2013-03-24 05:13:00,
2013-03-24 01:19:00,76.4,75.2,30.83,SSE,156,1.0,9.0,96,0.00,,,0.00,Wunderground v.1.15,2013-03-24 05:19:00,
2013-03-24 01:24:00,76.4,75.2,30.83,SSW,210,1.0,9.0,96,0.00,,,0.00,Wunderground v.1.15,2013-03-24 05:24:00,
2013-03-24 01:30:00,76.4,75.2,30.83,SSW,207,1.0,9.0,96,0.00,,,0.00,Wunderground v.1.15,2013-03-24 05:30:00,
2013-03-24 01:36:00,76.4,75.2,30.82,SSW,200,1.0,9.0,96,0.00,,,0.00,Wunderground v.1.15,2013-03-24 05:36:00,
2013-03-24 01:41:00,76.4,75.2,30.82,SSE,164,2.0,9.0,96,0.00,,,0.00,Wunderground v.1.15,2013-03-24 05:41:00,
2013-03-24 01:47:00,76.3,75.1,30.82,SE,146,2.0,9.0,96,0.00,,,0.00,Wunderground v.1.15,2013-03-24 05:47:00,
2013-03-24 01:52:00,76.3,75.1,30.82,SSW,195,1.0,9.0,96,0.00,,,0.00,Wunderground v.1.15,2013-03-24 05:52:00,
2013-03-24 01:57:00,76.3,75.1,30.82,SE,125,1.0,9.0,96,0.00,,,0.00,Wunderground v.1.15,2013-03-24 05:57:00,
2013-03-24 02:03:00,76.2,75.0,30.82,SSW,205,1.0,9.0,96,0.00,,,0.00,Wunderground v.1.15,2013-03-24 06:03:00,
2013-03-24 02:08:00,76.1,74.9,30.82,SSW,204,1.0,9.0,96,0.00,,,0.00,Wunderground v.1.15,2013-03-24 06:08:00,
2013-03-24 02:14:00,76.1,74.9,30.82,South,181,2.0,9.0,96,0.00,,,0.00,Wunderground v.1.15,2013-03-24 06:14:00,
2013-03-24 02:19:00,76.1,74.9,30.82,South,170,2.0,9.0,96,0.00,,,0.00,Wunderground v.1.15,2013-03-24 06:19:00,
2013-03-24 02:25:00,76.1,74.9,30.81,South,171,2.0,9.0,96,0.00,,,0.00,Wunderground v.1.15,2013-03-24 06:25:00,
2013-03-24 02:31:00,76.1,74.9,30.81,SSE,166,2.0,9.0,96,0.00,,,0.00,Wunderground v.1.15,2013-03-24 06:31:00,
2013-03-24 02:37:00,76.1,74.6,30.81,SSE,149,2.0,9.0,95,0.00,,,0.00,Wunderground v.1.15,2013-03-24 06:37:00,
2013-03-24 02:42:00,76.1,74.6,30.81,SW,216,2.0,9.0,95,0.00,,,0.00,Wunderground v.1.15,2013-03-24 06:42:00,
2013-03-24 02:48:00,76.0,74.5,30.80,SW,221,1.0,9.0,95,0.00,,,0.00,Wunderground v.1.15,2013-03-24 06:48:00,
2013-03-24 02:53:00,76.0,74.5,30.80,SW,218,2.0,9.0,95,0.00,,,0.00,Wunderground v.1.15,2013-03-24 06:53:00,
2013-03-24 02:59:00,75.9,74.4,30.80,SW,228,2.0,9.0,95,0.00,,,0.00,Wunderground v.1.15,2013-03-24 06:59:00,
2013-03-24 03:05:00,75.9,74.4,30.80,SW,221,2.0,9.0,95,0.00,,,0.00,Wunderground v.1.15,2013-03-24 07:05:00,
2013-03-24 03:12:00,75.9,74.0,30.80,SW,214,3.0,9.0,94,0.00,,,0.00,Wunderground v.1.15,2013-03-24 07:12:00,
2013-03-24 03:17:00,75.9,74.0,30.79,SW,215,2.0,9.0,94,0.00,,,0.00,Wunderground v.1.15,2013-03-24 07:17:00,
2013-03-24 03:23:00,75.9,74.0,30.80,WSW,241,3.0,9.0,94,0.00,,,0.00,Wunderground v.1.15,2013-03-24 07:23:00,
2013-03-24 03:28:00,76.0,74.1,30.80,SSW,193,3.0,9.0,94,0.00,,,0.00,Wunderground v.1.15,2013-03-24 07:28:00,
2013-03-24 03:34:00,76.0,73.8,30.79,SW,228,2.0,9.0,93,0.00,,,0.00,Wunderground v.1.15,2013-03-24 07:34:00,
2013-03-24 03:39:00,76.0,73.8,30.79,SW,235,2.0,9.0,93,0.00,,,0.00,Wunderground v.1.15,2013-03-24 07:39:00,
2013-03-24 03:45:00,76.0,73.8,30.79,South,181,3.0,9.0,93,0.00,,,0.00,Wunderground v.1.15,2013-03-24 07:45:00,
2013-03-24 03:50:00,76.0,73.8,30.79,SSW,210,3.0,9.0,93,0.00,,,0.00,Wunderground v.1.15,2013-03-24 07:50:00,
2013-03-24 03:56:00,76.0,73.8,30.79,West,274,3.0,9.0,93,0.00,,,0.00,Wunderground v.1.15,2013-03-24 07:56:00,
2013-03-24 04:02:00,76.0,73.8,30.79,South,177,3.0,9.0,93,0.00,,,0.00,Wunderground v.1.15,2013-03-24 08:02:00,
2013-03-24 04:08:00,76.0,73.8,30.78,SW,222,3.0,9.0,93,0.00,,,0.00,Wunderground v.1.15,2013-03-24 08:08:00,
2013-03-24 04:13:00,76.0,73.8,30.78,SW,214,3.0,9.0,93,0.00,,,0.00,Wunderground v.1.15,2013-03-24 08:13:00,
2013-03-24 04:18:00,76.0,73.8,30.78,SSW,195,4.0,9.0,93,0.00,,,0.00,Wunderground v.1.15,2013-03-24 08:18:00,
2013-03-24 04:24:00,76.1,73.9,30.78,SSW,208,4.0,9.0,93,0.00,,,0.00,Wunderground v.1.15,2013-03-24 08:24:00,
2013-03-24 04:29:00,76.0,73.8,30.78,SW,231,3.0,9.0,93,0.00,,,0.00,Wunderground v.1.15,2013-03-24 08:29:00,
2013-03-24 04:35:00,76.0,73.8,30.78,SW,214,3.0,9.0,93,0.00,,,0.00,Wunderground v.1.15,2013-03-24 08:35:00,
2013-03-24 04:41:00,75.9,73.7,30.78,SW,226,3.0,9.0,93,0.00,,,0.00,Wunderground v.1.15,2013-03-24 08:41:00,
2013-03-24 04:47:00,75.9,73.7,30.78,SE,136,3.0,9.0,93,0.00,,,0.00,Wunderground v.1.15,2013-03-24 08:47:00,
2013-03-24 04:52:00,76.0,73.8,30.78,South,184,4.0,9.0,93,0.00,,,0.00,Wunderground v.1.15,2013-03-24 08:52:00,
2013-03-24 04:58:00,76.0,73.8,30.78,South,176,4.0,9.0,93,0.00,,,0.00,Wunderground v.1.15,2013-03-24 08:58:00,
2013-03-24 05:04:00,76.0,73.8,30.78,SSW,208,4.0,9.0,93,0.00,,,0.00,Wunderground v.1.15,2013-03-24 09:04:00,
2013-03-24 05:10:00,76.1,73.9,30.78,WSW,239,4.0,9.0,93,0.00,,,0.00,Wunderground v.1.15,2013-03-24 09:10:00,
2013-03-24 05:16:00,76.0,73.8,30.78,South,184,4.0,9.0,93,0.00,,,0.00,Wunderground v.1.15,2013-03-24 09:16:00,
2013-03-24 05:22:00,76.0,73.8,30.78,West,267,4.0,9.0,93,0.00,,,0.00,Wunderground v.1.15,2013-03-24 09:22:00,
2013-03-24 05:28:00,76.0,73.8,30.78,South,191,4.0,9.0,93,0.00,,,0.00,Wunderground v.1.15,2013-03-24 09:28:00,
2013-03-24 05:33:00,76.0,73.8,30.78,WSW,248,4.0,9.0,93,0.00,,,0.00,Wunderground v.1.15,2013-03-24 09:33:00,
2013-03-24 05:39:00,76.0,73.8,30.78,SW,215,4.0,9.0,93,0.00,,,0.00,Wunderground v.1.15,2013-03-24 09:39:00,
2013-03-24 05:45:00,76.0,73.8,30.78,SSE,154,4.0,9.0,93,0.00,,,0.00,Wunderground v.1.15,2013-03-24 09:45:00,
2013-03-24 05:52:00,76.1,73.9,30.78,SSW,205,4.0,9.0,93,0.00,,,0.00,Wunderground v.1.15,2013-03-24 09:52:00,
2013-03-24 05:57:00,76.1,73.9,30.78,SSW,199,4.0,9.0,93,0.00,,,0.00,Wunderground v.1.15,2013-03-24 09:57:00,
2013-03-24 06:02:00,76.0,74.1,30.78,SSW,210,3.0,9.0,94,0.00,,,0.00,Wunderground v.1.15,2013-03-24 10:02:00,
2013-03-24 06:08:00,76.0,74.1,30.78,WSW,257,3.0,9.0,94,0.00,,,0.00,Wunderground v.1.15,2013-03-24 10:08:00,
2013-03-24 06:14:00,76.0,74.1,30.78,West,260,4.0,9.0,94,0.00,,,0.00,Wunderground v.1.15,2013-03-24 10:14:00,
2013-03-24 06:20:00,75.9,74.0,30.78,South,188,4.0,4.0,94,0.00,,,0.00,Wunderground v.1.15,2013-03-24 10:20:00,
2013-03-24 06:25:00,76.0,74.1,30.78,South,191,4.0,9.0,94,0.00,,,0.00,Wunderground v.1.15,2013-03-24 10:25:00,
2013-03-24 06:31:00,76.0,74.1,30.78,SW,222,3.0,9.0,94,0.00,,,0.00,Wunderground v.1.15,2013-03-24 10:31:00,
2013-03-24 06:36:00,76.0,74.1,30.78,SSE,150,4.0,9.0,94,0.00,,,0.00,Wunderground v.1.15,2013-03-24 10:36:00,
2013-03-24 06:41:00,76.0,74.1,30.78,South,184,4.0,9.0,94,0.00,,,0.00,Wunderground v.1.15,2013-03-24 10:41:00,
2013-03-24 06:47:00,76.1,74.2,30.78,SW,215,5.0,9.0,94,0.00,,,0.00,Wunderground v.1.15,2013-03-24 10:47:00,
2013-03-24 06:53:00,76.0,74.1,30.78,SSW,210,5.0,9.0,94,0.00,,,0.00,Wunderground v.1.15,2013-03-24 10:53:00,
2013-03-24 06:59:00,76.0,74.1,30.78,SW,236,4.0,9.0,94,0.00,,,0.00,Wunderground v.1.15,2013-03-24 10:59:00,
2013-03-24 07:05:00,75.9,74.0,30.78,South,181,4.0,9.0,94,0.00,,,0.00,Wunderground v.1.15,2013-03-24 11:05:00,
2013-03-24 07:11:00,76.0,74.1,30.78,SE,143,4.0,9.0,94,0.00,,,0.00,Wunderground v.1.15,2013-03-24 11:11:00,
2013-03-24 07:17:00,76.0,74.1,30.78,South,181,5.0,9.0,94,0.00,,,0.00,Wunderground v.1.15,2013-03-24 11:17:00,
2013-03-24 07:23:00,76.1,74.2,30.78,SSW,204,5.0,9.0,94,0.00,,,0.00,Wunderground v.1.15,2013-03-24 11:23:00,
2013-03-24 07:29:00,76.1,74.2,30.78,South,180,3.0,9.0,94,0.00,,,0.00,Wunderground v.1.15,2013-03-24 11:29:00,
2013-03-24 07:34:00,76.1,74.2,30.78,SW,226,3.0,9.0,94,0.00,,,0.00,Wunderground v.1.15,2013-03-24 11:34:00,
2013-03-24 07:40:00,76.0,74.1,30.78,South,184,4.0,9.0,94,0.00,,,0.00,Wunderground v.1.15,2013-03-24 11:40:00,
2013-03-24 07:45:00,76.1,74.2,30.78,SW,236,4.0,9.0,94,0.00,,,0.00,Wunderground v.1.15,2013-03-24 11:45:00,
2013-03-24 07:52:00,76.2,74.3,30.78,SE,135,4.0,9.0,94,0.00,,,0.00,Wunderground v.1.15,2013-03-24 11:52:00,
2013-03-24 07:57:00,76.3,74.4,30.78,SE,141,4.0,9.0,94,0.00,,,0.00,Wunderground v.1.15,2013-03-24 11:57:00,
2013-03-24 08:02:00,76.4,74.2,30.78,SSW,195,4.0,9.0,93,0.00,,,0.00,Wunderground v.1.15,2013-03-24 12:02:00,
2013-03-24 08:08:00,76.6,74.4,30.78,SE,126,4.0,9.0,93,0.00,,,0.00,Wunderground v.1.15,2013-03-24 12:08:00,
2013-03-24 08:14:00,76.8,74.6,30.78,SSW,201,3.0,9.0,93,0.00,,,0.00,Wunderground v.1.15,2013-03-24 12:14:00,
2013-03-24 08:20:00,76.9,74.7,30.78,West,260,3.0,9.0,93,0.00,,,0.00,Wunderground v.1.15,2013-03-24 12:20:00,
2013-03-24 08:25:00,77.0,74.8,30.78,SSE,167,4.0,9.0,93,0.00,,,0.00,Wunderground v.1.15,2013-03-24 12:25:00,
2013-03-24 08:30:00,77.1,74.6,30.78,SSW,195,4.0,4.0,92,0.00,,,0.00,Wunderground v.1.15,2013-03-24 12:30:00,
2013-03-24 08:35:00,77.3,74.8,30.78,SW,231,4.0,9.0,92,0.00,,,0.00,Wunderground v.1.15,2013-03-24 12:35:00,
2013-03-24 08:42:00,77.5,75.0,30.78,SW,226,5.0,9.0,92,0.00,,,0.00,Wunderground v.1.15,2013-03-24 12:42:00,
2013-03-24 08:47:00,77.6,75.1,30.78,SSE,160,5.0,9.0,92,0.00,,,0.00,Wunderground v.1.15,2013-03-24 12:47:00,
2013-03-24 08:52:00,77.8,75.3,30.78,South,188,5.0,9.0,92,0.00,,,0.00,Wunderground v.1.15,2013-03-24 12:52:00,
2013-03-24 08:58:00,78.1,75.3,30.78,SSW,194,5.0,9.0,91,0.00,,,0.00,Wunderground v.1.15,2013-03-24 12:58:00,
2013-03-24 09:04:00,78.2,75.4,30.77,SSE,160,5.0,9.0,91,0.00,,,0.00,Wunderground v.1.15,2013-03-24 13:04:00,
2013-03-24 09:09:00,78.3,75.1,30.77,South,170,5.0,9.0,90,0.00,,,0.00,Wunderground v.1.15,2013-03-24 13:09:00,
2013-03-24 09:15:00,78.5,75.3,30.77,South,179,6.0,10.0,90,0.00,,,0.00,Wunderground v.1.15,2013-03-24 13:15:00,
2013-03-24 09:20:00,78.6,75.4,30.77,SSW,194,6.0,9.0,90,0.00,,,0.00,Wunderground v.1.15,2013-03-24 13:20:00,
2013-03-24 09:27:00,78.8,75.3,30.77,SW,232,6.0,9.0,89,0.00,,,0.00,Wunderground v.1.15,2013-03-24 13:27:00,
2013-03-24 09:33:00,78.9,75.4,30.77,South,170,6.0,14.0,89,0.00,,,0.00,Wunderground v.1.15,2013-03-24 13:33:00,
2013-03-24 09:38:00,78.9,75.4,30.76,SSW,193,7.0,14.0,89,0.00,,,0.00,Wunderground v.1.15,2013-03-24 13:38:00,
2013-03-24 09:44:00,78.8,75.3,30.76,South,188,7.0,10.0,89,0.00,,,0.00,Wunderground v.1.15,2013-03-24 13:44:00,
2013-03-24 09:49:00,79.0,75.5,30.76,South,191,7.0,10.0,89,0.00,,,0.00,Wunderground v.1.15,2013-03-24 13:49:00,
2013-03-24 09:55:00,79.2,75.3,30.76,SW,230,7.0,11.0,88,0.00,,,0.00,Wunderground v.1.15,2013-03-24 13:55:00,
2013-03-24 10:02:00,79.5,75.6,30.76,South,191,7.0,9.0,88,0.00,,,0.00,Wunderground v.1.15,2013-03-24 14:02:00,
2013-03-24 10:08:00,79.6,75.7,30.76,SW,225,7.0,12.0,88,0.00,,,0.00,Wunderground v.1.15,2013-03-24 14:08:00,
2013-03-24 10:14:00,79.6,75.4,30.76,SSE,166,8.0,10.0,87,0.00,,,0.00,Wunderground v.1.15,2013-03-24 14:14:00,
2013-03-24 10:19:00,79.6,75.4,30.76,South,170,8.0,10.0,87,0.00,,,0.00,Wunderground v.1.15,2013-03-24 14:19:00,
2013-03-24 10:24:00,79.8,75.6,30.76,WSW,253,8.0,13.0,87,0.00,,,0.00,Wunderground v.1.15,2013-03-24 14:24:00,
2013-03-24 10:30:00,79.9,75.7,30.76,SSW,200,8.0,8.0,87,0.00,,,0.00,Wunderground v.1.15,2013-03-24 14:30:00,
2013-03-24 10:36:00,80.1,75.9,30.75,South,176,8.0,12.0,87,0.00,,,0.00,Wunderground v.1.15,2013-03-24 14:36:00,
2013-03-24 10:42:00,80.3,75.7,30.75,South,184,7.0,11.0,86,0.00,,,0.00,Wunderground v.1.15,2013-03-24 14:42:00,
2013-03-24 10:47:00,80.5,75.9,30.75,SW,214,7.0,11.0,86,0.00,,,0.00,Wunderground v.1.15,2013-03-24 14:47:00,
2013-03-24 10:52:00,80.7,76.1,30.75,SW,229,6.0,9.0,86,0.00,,,0.00,Wunderground v.1.15,2013-03-24 14:52:00,
2013-03-24 10:58:00,81.0,76.1,30.74,SE,136,6.0,13.0,85,0.00,,,0.00,Wunderground v.1.15,2013-03-24 14:58:00,
2013-03-24 11:03:00,81.1,76.2,30.74,SSW,207,6.0,9.0,85,0.00,,,0.00,Wunderground v.1.15,2013-03-24 15:03:00,
2013-03-24 11:09:00,80.9,76.0,30.74,SSW,198,7.0,18.0,85,0.00,,,0.00,Wunderground v.1.15,2013-03-24 15:09:00,
2013-03-24 11:15:00,80.9,76.0,30.75,SSW,195,8.0,9.0,85,0.00,,,0.00,Wunderground v.1.15,2013-03-24 15:15:00,
2013-03-24 11:21:00,81.1,76.2,30.75,South,186,7.0,9.0,85,0.00,,,0.00,Wunderground v.1.15,2013-03-24 15:21:00,
2013-03-24 11:27:00,81.2,75.9,30.75,South,175,7.0,9.0,84,0.00,,,0.00,Wunderground v.1.15,2013-03-24 15:27:00,
2013-03-24 11:32:00,81.3,76.0,30.74,SW,214,7.0,9.0,84,0.00,,,0.00,Wunderground v.1.15,2013-03-24 15:32:00,
2013-03-24 11:37:00,81.3,76.0,30.75,SW,219,7.0,11.0,84,0.00,,,0.00,Wunderground v.1.15,2013-03-24 15:37:00,
2013-03-24 11:42:00,81.2,75.9,30.74,SW,214,8.0,9.0,84,0.00,,,0.00,Wunderground v.1.15,2013-03-24 15:42:00,
2013-03-24 11:48:00,81.5,75.8,30.74,WSW,245,7.0,9.0,83,0.00,,,0.00,Wunderground v.1.15,2013-03-24 15:48:00,
2013-03-24 11:53:00,81.6,75.6,30.74,SW,232,7.0,10.0,82,0.00,,,0.00,Wunderground v.1.15,2013-03-24 15:53:00,
2013-03-24 11:59:00,81.3,75.6,30.74,SSE,160,8.0,17.0,83,0.00,,,0.00,Wunderground v.1.15,2013-03-24 15:59:00,
2013-03-24 12:04:00,81.1,75.4,30.73,SE,125,9.0,9.0,83,0.00,,,0.00,Wunderground v.1.15,2013-03-24 16:04:00,
2013-03-24 12:10:00,81.1,75.8,30.73,SW,231,10.0,10.0,84,0.00,,,0.00,Wunderground v.1.15,2013-03-24 16:10:00,
2013-03-24 12:15:00,81.2,75.5,30.73,South,174,9.0,12.0,83,0.00,,,0.00,Wunderground v.1.15,2013-03-24 16:15:00,
2013-03-24 12:22:00,81.1,75.4,30.73,SW,235,10.0,14.0,83,0.00,,,0.00,Wunderground v.1.15,2013-03-24 16:22:00,
2013-03-24 12:28:00,81.2,75.9,30.73,SSW,210,10.0,14.0,84,0.00,,,0.00,Wunderground v.1.15,2013-03-24 16:28:00,
2013-03-24 12:34:00,81.6,75.9,30.73,South,183,8.0,12.0,83,0.00,,,0.00,Wunderground v.1.15,2013-03-24 16:34:00,
2013-03-24 12:39:00,81.4,75.7,30.72,SW,224,9.0,14.0,83,0.00,,,0.00,Wunderground v.1.15,2013-03-24 16:39:00,
2013-03-24 12:45:00,81.3,75.6,30.72,SSW,198,10.0,17.0,83,0.00,,,0.00,Wunderground v.1.15,2013-03-24 16:45:00,
2013-03-24 12:50:00,81.4,75.7,30.73,SSW,201,9.0,11.0,83,0.00,,,0.00,Wunderground v.1.15,2013-03-24 16:50:00,
2013-03-24 12:56:00,81.5,75.8,30.72,SSW,210,9.0,12.0,83,0.00,,,0.00,Wunderground v.1.15,2013-03-24 16:56:00,
2013-03-24 13:01:00,81.5,75.8,30.72,SW,214,9.0,11.0,83,0.00,,,0.00,Wunderground v.1.15,2013-03-24 17:01:00,
2013-03-24 13:06:00,81.3,75.6,30.71,SSE,162,10.0,16.0,83,0.00,,,0.00,Wunderground v.1.15,2013-03-24 17:06:00,
2013-03-24 13:12:00,81.3,76.0,30.71,SSW,208,10.0,15.0,84,0.00,,,0.00,Wunderground v.1.15,2013-03-24 17:12:00,
2013-03-24 13:18:00,81.4,75.7,30.71,SSW,210,10.0,16.0,83,0.00,,,0.00,Wunderground v.1.15,2013-03-24 17:18:00,
2013-03-24 13:23:00,81.5,75.8,30.70,South,186,9.0,10.0,83,0.00,,,0.00,Wunderground v.1.15,2013-03-24 17:23:00,
2013-03-24 13:29:00,81.5,76.2,30.70,SSW,212,9.0,12.0,84,0.00,,,0.00,Wunderground v.1.15,2013-03-24 17:29:00,
2013-03-24 13:34:00,81.9,76.2,30.71,SW,228,8.0,9.0,83,0.00,,,0.00,Wunderground v.1.15,2013-03-24 17:34:00,
2013-03-24 13:39:00,82.1,76.1,30.71,South,169,7.0,9.0,82,0.00,,,0.00,Wunderground v.1.15,2013-03-24 17:39:00,
2013-03-24 13:45:00,82.7,76.6,30.71,WSW,245,6.0,9.0,82,0.00,,,0.00,Wunderground v.1.15,2013-03-24 17:45:00,
2013-03-24 13:53:00,83.1,76.3,30.72,WSW,240,6.0,9.0,80,0.00,,,0.00,Wunderground v.1.15,2013-03-24 17:53:00,
2013-03-24 13:58:00,82.9,76.5,30.72,WSW,243,6.0,9.0,81,0.00,,,0.00,Wunderground v.1.15,2013-03-24 17:58:00,
2013-03-24 14:03:00,82.7,76.3,30.72,WSW,249,7.0,10.0,81,0.00,,,0.00,Wunderground v.1.15,2013-03-24 18:03:00,
2013-03-24 14:08:00,83.0,76.6,30.72,South,187,7.0,13.0,81,0.00,,,0.00,Wunderground v.1.15,2013-03-24 18:08:00,
2013-03-24 14:14:00,83.3,76.5,30.71,WNW,284,6.0,9.0,80,0.00,,,0.00,Wunderground v.1.15,2013-03-24 18:14:00,
2013-03-24 14:19:00,83.0,76.6,30.71,WSW,245,7.0,14.0,81,0.00,,,0.00,Wunderground v.1.15,2013-03-24 18:19:00,
2013-03-24 14:25:00,82.8,76.4,30.71,SSW,198,7.0,12.0,81,0.00,,,0.00,Wunderground v.1.15,2013-03-24 18:25:00,
2013-03-24 14:31:00,83.3,76.9,30.71,SSW,203,6.0,9.0,81,0.00,,,0.00,Wunderground v.1.15,2013-03-24 18:31:00,
2013-03-24 14:36:00,83.3,76.5,30.71,SW,224,5.0,9.0,80,0.00,,,0.00,Wunderground v.1.15,2013-03-24 18:36:00,
2013-03-24 14:42:00,83.4,76.2,30.71,SW,214,5.0,9.0,79,0.00,,,0.00,Wunderground v.1.15,2013-03-24 18:42:00,
2013-03-24 14:47:00,83.3,75.7,30.72,SW,214,5.0,10.0,78,0.00,,,0.00,Wunderground v.1.15,2013-03-24 18:47:00,
2013-03-24 14:53:00,83.4,76.6,30.72,SSW,210,6.0,9.0,80,0.00,,,0.00,Wunderground v.1.15,2013-03-24 18:53:00,
2013-03-24 14:59:00,84.2,76.6,30.72,West,271,5.0,9.0,78,0.00,,,0.00,Wunderground v.1.15,2013-03-24 18:59:00,
2013-03-24 15:04:00,83.8,76.2,30.72,WNW,288,4.0,10.0,78,0.00,,,0.00,Wunderground v.1.15,2013-03-24 19:04:00,
2013-03-24 15:09:00,83.9,76.7,30.71,SSW,205,4.0,10.0,79,0.00,,,0.00,Wunderground v.1.15,2013-03-24 19:09:00,
2013-03-24 15:15:00,83.9,76.3,30.71,West,276,4.0,9.0,78,0.00,,,0.00,Wunderground v.1.15,2013-03-24 19:15:00,
2013-03-24 15:22:00,83.7,75.7,30.70,SW,228,6.0,9.0,77,0.00,,,0.00,Wunderground v.1.15,2013-03-24 19:22:00,
2013-03-24 15:27:00,83.6,76.8,30.70,SSW,207,6.0,11.0,80,0.00,,,0.00,Wunderground v.1.15,2013-03-24 19:27:00,
2013-03-24 15:33:00,83.8,76.6,30.70,WSW,237,5.0,9.0,79,0.00,,,0.00,Wunderground v.1.15,2013-03-24 19:33:00,
2013-03-24 15:38:00,83.9,76.3,30.69,West,265,6.0,11.0,78,0.00,,,0.00,Wunderground v.1.15,2013-03-24 19:38:00,
2013-03-24 15:44:00,83.7,76.5,30.69,West,276,6.0,13.0,79,0.00,,,0.00,Wunderground v.1.15,2013-03-24 19:44:00,
2013-03-24 15:50:00,83.8,76.2,30.69,West,278,6.0,6.0,78,0.00,,,0.00,Wunderground v.1.15,2013-03-24 19:50:00,
2013-03-24 15:56:00,83.9,75.9,30.68,SSW,210,6.0,9.0,77,0.00,,,0.00,Wunderground v.1.15,2013-03-24 19:56:00,
2013-03-24 16:02:00,83.8,76.6,30.68,SSW,197,6.0,9.0,79,0.00,,,0.00,Wunderground v.1.15,2013-03-24 20:02:00,
2013-03-24 16:07:00,83.9,76.7,30.67,NW,307,5.0,9.0,79,0.00,,,0.00,Wunderground v.1.15,2013-03-24 20:07:00,
2013-03-24 16:13:00,84.1,76.5,30.67,South,184,4.0,9.0,78,0.00,,,0.00,Wunderground v.1.15,2013-03-24 20:13:00,
2013-03-24 16:19:00,84.1,76.9,30.68,SSW,201,4.0,9.0,79,0.00,,,0.00,Wunderground v.1.15,2013-03-24 20:19:00,
2013-03-24 16:24:00,83.8,76.2,30.68,West,278,4.0,9.0,78,0.00,,,0.00,Wunderground v.1.15,2013-03-24 20:24:00,
2013-03-24 16:29:00,83.9,75.9,30.68,WSW,252,5.0,9.0,77,0.00,,,0.00,Wunderground v.1.15,2013-03-24 20:29:00,
2013-03-24 16:35:00,84.3,75.9,30.67,SSE,161,5.0,13.0,76,0.00,,,0.00,Wunderground v.1.15,2013-03-24 20:35:00,
2013-03-24 16:40:00,84.5,76.5,30.67,South,189,5.0,9.0,77,0.00,,,0.00,Wunderground v.1.15,2013-03-24 20:40:00,
2013-03-24 16:47:00,84.3,76.3,30.68,SW,228,5.0,9.0,77,0.00,,,0.00,Wunderground v.1.15,2013-03-24 20:47:00,
2013-03-24 16:52:00,84.3,76.3,30.68,SW,233,4.0,9.0,77,0.00,,,0.00,Wunderground v.1.15,2013-03-24 20:52:00,
2013-03-24 16:57:00,85.0,76.6,30.68,West,266,3.0,9.0,76,0.00,,,0.00,Wunderground v.1.15,2013-03-24 20:57:00,
2013-03-24 17:02:00,84.8,76.0,30.69,WSW,256,3.0,9.0,75,0.00,,,0.00,Wunderground v.1.15,2013-03-24 21:02:00,
2013-03-24 17:08:00,84.9,75.3,30.69,WNW,285,3.0,9.0,73,0.00,,,0.00,Wunderground v.1.15,2013-03-24 21:08:00,
2013-03-24 17:13:00,84.7,75.5,30.68,NNW,328,4.0,9.0,74,0.00,,,0.00,Wunderground v.1.15,2013-03-24 21:13:00,
2013-03-24 17:19:00,84.4,74.8,30.68,WNW,285,5.0,10.0,73,0.00,,,0.00,Wunderground v.1.15,2013-03-24 21:19:00,
2013-03-24 17:24:00,84.3,75.1,30.68,WNW,291,6.0,9.0,74,0.00,,,0.00,Wunderground v.1.15,2013-03-24 21:24:00,
2013-03-24 17:30:00,84.2,75.4,30.67,WNW,290,5.0,9.0,75,0.00,,,0.00,Wunderground v.1.15,2013-03-24 21:30:00,
2013-03-24 17:35:00,84.2,75.8,30.68,WNW,294,5.0,9.0,76,0.00,,,0.00,Wunderground v.1.15,2013-03-24 21:35:00,
2013-03-24 17:41:00,84.3,75.5,30.68,WSW,248,4.0,7.0,75,0.00,,,0.00,Wunderground v.1.15,2013-03-24 21:41:00,
2013-03-24 17:47:00,84.1,74.9,30.68,WSW,253,4.0,9.0,74,0.00,,,0.00,Wunderground v.1.15,2013-03-24 21:47:00,
2013-03-24 17:53:00,83.9,74.7,30.68,West,268,5.0,9.0,74,0.00,,,0.00,Wunderground v.1.15,2013-03-24 21:53:00,
2013-03-24 17:59:00,84.1,75.7,30.68,WSW,257,5.0,9.0,76,0.00,,,0.00,Wunderground v.1.15,2013-03-24 21:59:00,
2013-03-24 18:04:00,83.9,74.3,30.68,WSW,250,5.0,9.0,73,0.00,,,0.00,Wunderground v.1.15,2013-03-24 22:04:00,
2013-03-24 18:10:00,83.9,75.1,30.69,WSW,254,5.0,9.0,75,0.00,,,0.00,Wunderground v.1.15,2013-03-24 22:10:00,
2013-03-24 18:15:00,83.7,74.9,30.69,West,278,5.0,11.0,75,0.00,,,0.00,Wunderground v.1.15,2013-03-24 22:15:00,
2013-03-24 18:21:00,83.6,75.2,30.68,WNW,291,5.0,9.0,76,0.00,,,0.00,Wunderground v.1.15,2013-03-24 22:21:00,
2013-03-24 18:27:00,83.4,75.4,30.68,West,262,4.0,9.0,77,0.00,,,0.00,Wunderground v.1.15,2013-03-24 22:27:00,
2013-03-24 18:33:00,83.3,74.9,30.69,West,274,4.0,9.0,76,0.00,,,0.00,Wunderground v.1.15,2013-03-24 22:33:00,
2013-03-24 18:39:00,82.8,75.2,30.69,West,274,3.0,9.0,78,0.00,,,0.00,Wunderground v.1.15,2013-03-24 22:39:00,
2013-03-24 18:44:00,82.4,75.2,30.68,West,276,2.0,9.0,79,0.00,,,0.00,Wunderground v.1.15,2013-03-24 22:44:00,
2013-03-24 18:49:00,82.1,75.3,30.69,West,262,2.0,9.0,80,0.00,,,0.00,Wunderground v.1.15,2013-03-24 22:49:00,
2013-03-24 18:55:00,81.6,74.8,30.69,WNW,301,2.0,9.0,80,0.00,,,0.00,Wunderground v.1.15,2013-03-24 22:55:00,
2013-03-24 19:00:00,81.3,74.9,30.69,WNW,299,2.0,9.0,81,0.00,,,0.00,Wunderground v.1.15,2013-03-24 23:00:00,
2013-03-24 19:05:00,81.0,75.0,30.69,WNW,284,2.0,9.0,82,0.00,,,0.00,Wunderground v.1.15,2013-03-24 23:05:00,
2013-03-24 19:12:00,80.7,75.1,30.70,West,276,2.0,9.0,83,0.00,,,0.00,Wunderground v.1.15,2013-03-24 23:12:00,
2013-03-24 19:17:00,80.5,74.9,30.70,NW,312,2.0,9.0,83,0.00,,,0.00,Wunderground v.1.15,2013-03-24 23:17:00,
2013-03-24 19:23:00,80.3,75.0,30.70,WNW,298,2.0,9.0,84,0.00,,,0.00,Wunderground v.1.15,2013-03-24 23:23:00,
2013-03-24 19:28:00,80.0,75.1,30.71,WNW,282,3.0,9.0,85,0.00,,,0.00,Wunderground v.1.15,2013-03-24 23:28:00,
2013-03-24 19:34:00,79.4,74.5,30.71,NW,326,3.0,9.0,85,0.00,,,0.00,Wunderground v.1.15,2013-03-24 23:34:00,
2013-03-24 19:39:00,79.0,74.5,30.71,WNW,301,3.0,9.0,86,0.00,,,0.00,Wunderground v.1.15,2013-03-24 23:39:00,
2013-03-24 19:44:00,78.8,74.6,30.70,West,269,2.0,9.0,87,0.00,,,0.00,Wunderground v.1.15,2013-03-24 23:44:00,
2013-03-24 19:49:00,78.7,74.5,30.71,NW,323,2.0,9.0,87,0.00,,,0.00,Wunderground v.1.15,2013-03-24 23:49:00,
2013-03-24 19:55:00,78.5,74.3,30.71,NW,309,1.0,9.0,87,0.00,,,0.00,Wunderground v.1.15,2013-03-24 23:55:00,
2013-03-24 20:01:00,78.6,74.7,30.72,WNW,299,1.0,9.0,88,0.00,,,0.00,Wunderground v.1.15,2013-03-25 00:01:00,
2013-03-24 20:06:00,78.6,74.4,30.72,NNW,335,2.0,9.0,87,0.00,,,0.00,Wunderground v.1.15,2013-03-25 00:06:00,
2013-03-24 20:12:00,78.5,74.3,30.71,West,273,2.0,9.0,87,0.00,,,0.00,Wunderground v.1.15,2013-03-25 00:12:00,
2013-03-24 20:18:00,78.5,74.3,30.71,WSW,249,2.0,9.0,87,0.00,,,0.00,Wunderground v.1.15,2013-03-25 00:18:00,
2013-03-24 20:24:00,78.4,73.9,30.71,SW,224,3.0,9.0,86,0.00,,,0.00,Wunderground v.1.15,2013-03-25 00:24:00,
2013-03-24 20:29:00,78.3,73.8,30.71,WSW,238,3.0,9.0,86,0.00,,,0.00,Wunderground v.1.15,2013-03-25 00:29:00,
2013-03-24 20:34:00,78.4,74.2,30.72,WNW,284,3.0,9.0,87,0.00,,,0.00,Wunderground v.1.15,2013-03-25 00:34:00,
2013-03-24 20:39:00,78.4,74.2,30.72,WNW,295,2.0,9.0,87,0.00,,,0.00,Wunderground v.1.15,2013-03-25 00:39:00,
2013-03-24 20:45:00,78.5,74.3,30.72,WNW,285,2.0,9.0,87,0.00,,,0.00,Wunderground v.1.15,2013-03-25 00:45:00,
2013-03-24 20:51:00,78.4,74.2,30.72,WNW,288,2.0,9.0,87,0.00,,,0.00,Wunderground v.1.15,2013-03-25 00:51:00,
2013-03-24 20:57:00,78.5,74.6,30.73,WNW,284,2.0,9.0,88,0.00,,,0.00,Wunderground v.1.15,2013-03-25 00:57:00,
2013-03-24 21:02:00,78.5,74.6,30.73,NW,310,1.0,9.0,88,0.00,,,0.00,Wunderground v.1.15,2013-03-25 01:02:00,
2013-03-24 21:08:00,78.4,74.5,30.74,WNW,285,1.0,9.0,88,0.00,,,0.00,Wunderground v.1.15,2013-03-25 01:08:00,
2013-03-24 21:14:00,78.3,74.5,30.74,SW,221,1.0,9.0,88,0.00,,,0.00,Wunderground v.1.15,2013-03-25 01:14:00,
2013-03-24 21:20:00,78.4,74.9,30.74,WNW,299,1.0,9.0,89,0.00,,,0.00,Wunderground v.1.15,2013-03-25 01:20:00,
2013-03-24 21:25:00,78.4,74.9,30.75,WNW,291,1.0,9.0,89,0.00,,,0.00,Wunderground v.1.15,2013-03-25 01:25:00,
2013-03-24 21:30:00,78.3,74.8,30.75,WNW,288,1.0,9.0,89,0.00,,,0.00,Wunderground v.1.15,2013-03-25 01:30:00,
2013-03-24 21:35:00,78.2,74.4,30.75,WNW,299,1.0,9.0,88,0.00,,,0.00,Wunderground v.1.15,2013-03-25 01:35:00,
2013-03-24 21:40:00,78.1,74.3,30.75,WNW,290,1.0,1.0,88,0.00,,,0.00,Wunderground v.1.15,2013-03-25 01:40:00,
2013-03-24 21:46:00,78.2,74.7,30.75,NNW,330,1.0,9.0,89,0.00,,,0.00,Wunderground v.1.15,2013-03-25 01:46:00,
2013-03-24 21:52:00,78.1,74.6,30.75,West,266,1.0,9.0,89,0.00,,,0.00,Wunderground v.1.15,2013-03-25 01:52:00,
2013-03-24 21:58:00,78.1,74.6,30.75,WSW,256,0.0,9.0,89,0.00,,,0.00,Wunderground v.1.15,2013-03-25 01:58:00,
2013-03-24 22:04:00,77.9,74.4,30.75,NNW,327,0.0,9.0,89,0.00,,,0.00,Wunderground v.1.15,2013-03-25 02:04:00,
2013-03-24 22:09:00,77.8,74.0,30.75,West,276,0.0,9.0,88,0.00,,,0.00,Wunderground v.1.15,2013-03-25 02:09:00,
2013-03-24 22:14:00,77.7,74.2,30.75,West,260,0.0,9.0,89,0.00,,,0.00,Wunderground v.1.15,2013-03-25 02:14:00,
2013-03-24 22:19:00,77.8,74.3,30.75,NW,309,0.0,9.0,89,0.00,,,0.00,Wunderground v.1.15,2013-03-25 02:19:00,
2013-03-24 22:25:00,77.8,74.3,30.75,NNW,338,0.0,9.0,89,0.00,,,0.00,Wunderground v.1.15,2013-03-25 02:25:00,
2013-03-24 22:30:00,77.7,74.2,30.76,NW,304,0.0,9.0,89,0.00,,,0.00,Wunderground v.1.15,2013-03-25 02:30:00,
2013-03-24 22:36:00,77.7,74.2,30.75,SW,221,1.0,9.0,89,0.00,,,0.00,Wunderground v.1.15,2013-03-25 02:36:00,
2013-03-24 22:42:00,77.8,74.0,30.75,WNW,283,1.0,9.0,88,0.00,,,0.00,Wunderground v.1.15,2013-03-25 02:42:00,
2013-03-24 22:47:00,77.9,74.1,30.75,West,262,1.0,9.0,88,0.00,,,0.00,Wunderground v.1.15,2013-03-25 02:47:00,
2013-03-24 22:53:00,77.9,74.1,30.76,West,264,1.0,9.0,88,0.00,,,0.00,Wunderground v.1.15,2013-03-25 02:53:00,
2013-03-24 22:58:00,77.9,73.7,30.76,SW,236,1.0,9.0,87,0.00,,,0.00,Wunderground v.1.15,2013-03-25 02:58:00,
2013-03-24 23:04:00,77.9,74.1,30.76,South,174,1.0,9.0,88,0.00,,,0.00,Wunderground v.1.15,2013-03-25 03:04:00,
2013-03-24 23:09:00,77.9,73.7,30.76,SSW,213,1.0,9.0,87,0.00,,,0.00,Wunderground v.1.15,2013-03-25 03:09:00,
2013-03-24 23:14:00,77.9,74.1,30.76,West,269,1.0,9.0,88,0.00,,,0.00,Wunderground v.1.15,2013-03-25 03:14:00,
2013-03-24 23:20:00,77.8,73.6,30.76,West,262,1.0,9.0,87,0.00,,,0.00,Wunderground v.1.15,2013-03-25 03:20:00,
2013-03-24 23:25:00,77.8,73.6,30.76,SW,221,1.0,9.0,87,0.00,,,0.00,Wunderground v.1.15,2013-03-25 03:25:00,
2013-03-24 23:32:00,77.8,73.6,30.76,WSW,243,1.0,9.0,87,0.00,,,0.00,Wunderground v.1.15,2013-03-25 03:32:00,
2013-03-24 23:37:00,77.7,73.5,30.76,WSW,258,0.0,9.0,87,0.00,,,0.00,Wunderground v.1.15,2013-03-25 03:37:00,
2013-03-24 23:42:00,77.7,73.9,30.76,SW,224,0.0,9.0,88,0.00,,,0.00,Wunderground v.1.15,2013-03-25 03:42:00,
2013-03-24 23:48:00,77.7,73.9,30.76,WSW,241,0.0,9.0,88,0.00,,,0.00,Wunderground v.1.15,2013-03-25 03:48:00,
2013-03-24 23:54:00,77.7,73.9,30.75,SSW,212,0.0,9.0,88,0.00,,,0.00,Wunderground v.1.15,2013-03-25 03:54:00,
2013-03-24 23:59:00,77.7,73.9,30.75,SW,215,1.0,9.0,88,0.00,,,0.00,Wunderground v.1.15,2013-03-25 03:59:00,